Theta_e
329 323 315 306 295 293 290 292 295 299 308 313 318 316 315 315 312 303 328 333 335 335 338 340 342 340 338 335 333 331 330 330 330 330 329 329 328 327 327 327 327 328 329 331 332 331 330 330 329
327 320 309 301 292 287 289 296 299 301 313 312 314 315 314 314 322 324 326 335 336 336 338 338 339 339 336 333 331 330 329 329 328 328 328 327 327 326 326 326 326 328 330 332 332 330 328 328 326
322 314 304 298 293 287 290 297 298 301 306 306 311 317 317 318 327 327 331 335 336 336 337 336 338 337 334 332 330 329 328 327 326 326 326 326 325 325 325 326 326 328 329 330 329 328 328 326 327
316 314 306 296 291 291 295 298 299 301 306 314 315 311 321 330 329 332 335 337 336 335 335 336 337 334 332 330 328 327 326 325 325 324 324 323 323 324 324 325 326 326 327 328 330 329 328 326 327
317 309 299 297 293 294 295 297 298 301 308 311 312 311 317 329 334 334 334 335 332 332 333 333 334 332 330 328 326 325 325 324 323 323 323 323 322 322 324 325 325 326 327 328 329 328 327 327 327
310 307 296 295 294 294 294 299 302 306 307 309 311 311 319 331 331 330 330 329 329 327 325 325 325 328 328 325 324 323 324 323 322 322 321 321 322 322 322 324 325 326 326 327 327 327 327 327 327
308 303 294 298 293 295 295 298 300 303 304 309 314 312 320 327 328 327 326 325 324 323 320 318 319 322 323 324 324 323 323 321 321 321 320 320 320 321 321 322 324 326 327 327 326 326 327 326 326
305 304 295 295 291 293 296 299 303 308 306 312 312 309 317 325 326 326 325 324 323 322 318 314 314 313 312 314 320 321 322 320 320 320 320 319 317 319 319 319 322 323 325 326 326 325 326 325 324
308 299 294 294 292 294 297 301 309 312 308 310 311 310 319 326 325 323 321 321 321 322 321 319 313 309 311 312 314 317 318 318 317 316 318 314 311 312 312 317 321 322 322 325 325 325 324 322 322
304 298 298 296 294 294 296 299 301 305 309 311 313 315 320 326 324 321 320 319 320 320 319 314 311 309 310 314 312 312 313 312 312 311 311 311 310 310 312 311 316 318 318 319 322 323 321 318 314
304 298 295 296 297 296 299 298 302 302 300 305 312 311 314 317 317 319 321 321 320 320 316 313 311 309 310 311 310 310 309 310 310 309 309 308 308 308 308 308 309 311 312 311 313 313 314 314 314
297 299 298 299 298 297 296 301 299 300 298 307 312 312 312 312 314 315 317 319 320 319 313 313 311 310 310 310 309 308 309 309 308 308 309 307 306 306 307 307 308 309 309 309 310 310 312 313 315
297 297 297 298 299 299 299 297 298 298 303 306 310 312 310 309 309 310 313 317 321 316 313 312 312 310 310 309 307 308 308 308 308 308 309 308 308 308 308 309 311 308 308 309 309 309 310 312 313
300 298 296 298 297 297 297 297 299 299 305 304 307 306 307 308 308 309 314 318 315 311 311 312 313 311 310 307 307 307 308 308 308 308 310 313 312 311 311 311 312 311 310 309 309 308 309 314 313
301 295 295 295 296 295 296 293 294 299 304 304 302 301 304 306 308 308 313 313 312 308 309 311 313 313 310 308 307 307 309 309 308 310 313 314 314 313 313 313 313 314 314 314 311 309 308 312 315
297 295 291 296 295 296 294 290 295 300 300 300 299 299 300 301 303 305 306 306 306 307 306 309 313 311 310 308 307 308 307 308 308 310 310 311 311 312 312 311 311 311 310 310 309 308 305 309 311
296 291 290 292 297 294 294 291 295 298 299 299 298 298 299 299 301 302 304 304 305 306 308 308 311 311 310 309 308 308 307 306 307 307 306 306 307 309 307 306 305 306 304 304 305 305 304 306 309
290 289 290 290 295 294 290 291 294 296 296 297 297 298 298 299 300 302 303 304 304 304 308 309 311 311 310 309 308 306 306 304 305 303 302 301 301 303 303 303 303 303 303 303 302 303 303 304 307
295 293 290 292 296 292 292 292 294 295 294 295 296 297 298 299 301 302 301 302 302 303 304 307 309 311 310 307 305 306 306 304 301 300 299 299 299 300 301 301 301 301 301 301 301 302 300 300 304
294 292 290 293 294 293 292 292 296 295 295 296 296 298 299 298 298 299 299 300 300 301 302 304 307 309 310 308 307 309 307 304 302 298 297 296 296 297 299 299 299 299 300 298 297 298 299 298 298
290 289 289 290 292 292 289 287 290 294 297 297 298 299 300 300 298 298 299 298 299 299 300 302 304 305 306 307 309 307 305 303 300 296 294 294 294 295 296 296 296 296 296 294 293 293 294 294 294
287 293 292 292 288 281 289 278 286 290 293 295 296 297 298 299 299 299 298 298 298 298 298 300 301 302 304 307 307 305 303 301 297 295 292 292 292 293 293 294 294 294 292 291 290 290 289 290 289
290 292 291 290 287 285 283 282 285 289 290 293 295 296 297 299 298 298 298 299 298 297 297 298 299 299 300 305 308 306 304 301 298 293 291 290 290 291 292 292 292 292 291 288 288 288 288 288 286
294 291 290 288 285 274 283 281 281 285 290 292 294 295 296 297 298 298 299 298 297 296 296 296 297 297 298 302 305 305 302 299 296 292 289 288 288 289 290 291 291 291 290 288 287 286 286 286 285
290 286 277 274 274 276 284 282 284 290 293 293 294 295 294 297 296 296 295 295 295 294 294 295 295 294 295 297 299 301 300 299 296 291 289 287 287 287 288 289 290 289 289 287 287 285 284 284 283
287 286 279 273 275 278 284 280 286 291 292 293 293 294 294 295 296 295 295 295 294 294 293 294 293 292 293 293 293 294 296 295 293 291 288 287 286 287 288 288 288 288 287 287 286 285 284 283 283
287 283 288 282 278 277 280 283 288 289 289 289 291 292 292 294 295 294 293 293 293 293 293 293 291 290 290 290 290 290 290 290 289 288 287 286 286 287 286 287 286 286 285 285 284 283 282 282 282
290 291 282 281 271 272 278 279 282 285 288 288 288 289 291 291 291 290 291 291 291 292 291 290 290 289 288 288 288 288 287 287 286 286 285 285 285 285 285 285 285 285 284 283 282 281 282 281 281
286 285 286 285 281 277 275 278 285 287 288 288 288 289 290 290 289 289 289 289 290 289 289 288 287 286 286 285 284 285 285 285 286 285 284 284 284 284 284 283 283 283 282 282 281 281 280 280 279
287 287 287 281 279 279 280 281 288 288 289 289 289 290 289 289 289 288 288 288 287 288 286 286 286 285 284 283 283 284 284 285 284 284 284 284 283 283 283 282 282 281 281 280 280 279 279 278 277
Wind_Speed
9 9 1 5 5 6 1 1 1 1 7 6 10 16 12 5 3 5 0 12 10 8 11 11 14 14 13 12 11 12 11 12 13 12 12 12 12 12 12 13 12 13 13 14 15 15 16 16 15
5 5 5 3 6 4 4 6 5 3 8 8 9 5 8 8 4 9 6 12 12 10 10 10 12 14 13 13 11 12 12 13 13 13 13 12 12 12 12 12 13 13 13 14 16 15 16 15 15
4 0 4 4 4 4 3 3 4 4 5 3 6 7 4 2 4 4 10 12 13 10 11 10 12 13 13 13 12 12 11 12 12 12 12 12 12 12 12 12 13 13 13 15 15 15 16 15 15
1 5 4 4 7 3 5 2 2 4 6 9 6 9 4 2 1 6 11 13 14 10 9 11 12 12 13 13 11 12 11 11 11 12 13 12 12 11 11 12 12 13 13 15 14 14 14 15 15
4 3 5 4 2 5 3 3 1 6 5 7 2 5 5 5 13 13 13 11 15 10 8 9 12 12 12 13 11 11 11 11 11 12 13 12 13 11 11 11 12 13 13 13 14 13 14 15 16
5 3 5 3 3 4 2 5 6 6 4 4 8 6 3 5 12 10 11 13 10 11 8 7 9 10 10 12 11 10 12 11 11 11 11 10 11 12 11 11 11 12 13 13 14 15 16 16 18
4 4 3 4 6 3 2 2 5 4 3 5 4 7 4 9 10 11 13 11 10 9 8 5 5 7 9 10 9 10 11 10 11 12 12 10 8 10 11 11 11 13 15 12 14 15 16 17 19
4 4 3 2 4 4 4 3 2 5 4 2 4 6 8 5 9 13 11 10 9 7 6 5 4 5 5 4 7 8 9 11 11 11 9 11 11 10 9 9 10 13 14 14 14 14 15 16 17
1 5 3 4 3 5 3 3 4 3 7 3 4 3 3 12 12 13 10 9 6 5 5 5 5 5 4 4 4 7 9 9 10 9 11 8 4 6 7 9 10 13 14 14 13 12 12 12 11
4 4 2 2 2 3 3 4 3 4 3 5 5 6 4 10 9 12 9 8 6 4 5 5 5 5 3 3 5 5 5 4 5 5 6 4 5 5 6 6 11 11 11 12 13 12 10 7 4
4 3 4 2 2 1 3 4 2 8 3 3 12 5 4 9 7 7 7 8 8 5 5 5 5 5 5 5 3 2 3 3 3 6 5 5 4 4 4 3 4 4 7 4 6 5 4 5 4
5 5 4 1 3 1 3 5 4 3 2 6 8 7 5 9 7 7 6 8 8 6 6 5 5 6 5 4 3 3 3 3 3 4 5 4 3 4 4 3 4 4 4 5 5 3 4 5 6
5 2 5 4 6 4 5 3 5 3 4 6 6 7 8 6 5 5 4 4 5 7 6 6 6 6 5 5 4 4 4 3 3 3 4 3 3 4 3 4 3 4 4 4 5 5 4 4 5
3 5 4 4 3 3 4 2 1 4 6 7 6 7 7 7 6 5 5 6 5 4 5 6 6 6 6 5 5 4 4 3 4 3 4 5 4 3 3 3 3 4 3 4 4 4 4 3 4
3 5 3 2 1 1 3 1 5 7 8 8 7 6 6 5 5 5 6 6 6 4 4 6 8 6 7 6 6 4 4 4 4 3 5 6 5 4 4 4 5 4 5 5 4 4 4 4 4
4 5 2 2 3 2 2 6 3 8 10 9 8 7 6 6 5 4 5 5 5 4 4 4 6 7 6 6 5 4 4 4 3 3 3 5 6 5 5 4 5 5 4 4 4 4 4 4 4
4 2 3 4 6 3 4 5 4 7 7 9 9 8 8 7 7 7 6 6 6 6 5 4 6 7 6 7 5 5 5 4 4 3 3 5 6 6 4 4 4 4 3 4 3 4 4 3 4
5 3 3 4 3 4 3 9 3 7 8 10 9 8 8 9 12 6 7 6 5 5 4 4 4 7 7 6 5 4 4 3 3 3 4 5 4 5 4 4 4 3 3 4 3 5 4 3 2
4 3 3 3 1 3 7 7 7 9 7 10 9 10 12 14 7 7 6 5 5 5 5 5 6 6 7 4 4 3 3 3 3 3 5 5 4 4 4 4 4 3 4 4 4 2 4 6 3
3 2 1 1 2 3 6 10 11 10 12 15 15 16 16 9 8 9 8 7 7 6 6 6 5 5 4 4 2 3 3 3 3 3 3 5 5 5 4 4 4 4 4 5 5 4 1 4 6
1 2 3 2 1 2 5 9 6 7 15 13 16 15 17 17 16 13 11 9 7 7 6 6 5 4 3 5 5 5 5 4 3 2 3 4 5 5 5 5 5 5 4 4 4 4 4 3 5
1 4 2 4 2 3 2 8 7 4 8 11 16 15 14 14 12 11 12 9 8 7 5 5 5 4 3 6 6 9 4 3 3 3 1 3 4 5 5 5 5 5 4 4 4 5 4 4 3
5 1 1 2 3 1 3 0 10 4 6 9 13 14 13 14 16 15 14 12 8 8 7 6 5 3 1 4 6 6 6 4 5 4 4 3 4 5 5 5 5 5 4 5 6 6 7 5 2
2 3 5 4 2 2 4 6 7 4 6 3 4 9 10 11 13 11 10 10 10 7 6 6 6 4 2 3 6 8 9 9 7 5 4 3 2 3 5 5 4 4 5 6 5 6 7 7 6
2 5 3 5 2 6 1 3 10 8 9 8 7 8 10 9 12 12 14 14 12 10 8 7 7 6 5 4 5 7 8 10 11 9 5 5 3 2 3 3 4 4 6 5 6 7 7 6 6
6 7 5 5 3 5 2 7 8 6 5 4 5 5 6 8 11 14 15 13 12 11 9 8 8 7 6 6 6 5 6 4 4 6 5 4 3 3 3 5 5 5 7 5 6 5 5 6 6
4 4 5 2 1 1 5 8 10 5 6 5 7 3 6 7 10 12 10 11 12 11 11 10 7 6 6 7 6 6 6 7 7 6 5 4 4 5 5 6 6 7 7 6 7 5 6 6 6
6 5 2 1 3 6 5 6 9 5 4 3 7 8 7 6 6 7 8 9 7 7 7 7 7 8 6 6 5 5 6 6 7 6 6 6 4 4 5 6 6 7 7 6 6 5 5 7 5
3 3 3 5 6 5 3 7 7 6 7 5 8 9 9 8 9 10 10 9 10 8 8 9 8 8 7 6 6 7 7 8 9 8 6 4 5 4 4 5 6 7 8 5 6 6 6 8 7
3 9 8 6 6 5 3 14 4 9 6 6 9 9 6 6 8 8 10 10 9 10 9 10 8 9 8 6 6 6 5 6 8 9 10 10 8 6 5 5 6 7 7 5 6 6 6 7 7
Wind_Direction
324 329 306 38 64 66 326 107 25 90 61 349 84 91 96 57 25 129 193 130 125 112 105 109 111 108 103 92 86 79 70 66 53 45 42 42 43 44 47 49 42 45 39 42 39 34 29 27 22
324 314 43 75 88 76 286 327 98 110 141 162 72 60 51 68 60 108 98 137 118 109 103 110 110 109 104 94 84 77 68 62 59 49 41 41 44 42 46 50 48 48 39 42 40 34 33 30 33
298 121 77 96 109 133 148 280 159 106 153 104 100 57 62 46 56 101 129 128 111 107 112 112 109 108 104 95 85 77 68 62 60 59 51 45 43 47 47 51 49 43 43 41 39 38 37 36 34
343 20 38 78 96 7 157 245 243 111 55 51 95 70 75 321 22 94 113 108 93 97 106 112 109 105 98 93 84 80 67 64 59 65 58 52 50 49 44 49 50 50 43 42 38 38 38 42 41
46 57 62 85 89 110 26 282 17 70 75 24 32 98 82 59 86 88 93 95 104 94 89 93 99 100 96 93 84 77 69 59 69 70 63 54 46 49 50 50 49 44 43 39 35 38 43 43 39
58 88 77 131 152 115 27 347 91 70 75 92 64 98 85 102 94 99 99 96 98 99 87 82 79 84 89 90 84 75 71 56 53 61 69 59 50 52 54 50 47 41 35 33 33 42 50 48 46
89 73 159 152 147 79 118 334 60 79 90 36 137 104 104 85 103 104 98 96 98 101 101 99 88 89 85 86 82 75 65 52 51 56 67 61 53 35 37 30 27 33 35 39 42 47 54 55 57
94 93 105 250 158 106 337 57 103 56 56 329 5 160 150 127 119 103 97 102 102 109 118 121 119 100 101 90 90 81 70 57 48 47 45 42 30 32 16 10 14 31 31 37 48 50 61 59 61
71 67 142 193 146 125 21 102 35 60 84 45 23 67 75 129 123 109 111 108 106 110 132 147 138 120 116 115 80 75 68 47 43 30 39 47 39 31 20 16 24 28 24 29 34 47 58 59 51
76 91 174 315 33 105 75 99 98 82 71 67 87 54 89 130 135 128 139 125 120 120 118 129 127 132 138 97 87 90 68 54 50 53 47 54 43 32 29 5 11 13 18 16 25 37 48 56 44
29 126 160 10 42 48 97 60 45 120 47 192 158 147 106 116 111 122 134 135 145 147 124 124 123 109 109 101 86 70 72 55 43 50 54 42 47 32 24 16 6 358 7 9 21 19 42 60 53
104 49 124 115 352 56 95 109 71 32 155 141 136 144 114 119 133 135 129 136 150 147 140 133 124 106 98 104 93 99 86 68 49 48 47 47 27 33 19 16 3 3 4 6 18 29 50 78 71
77 126 57 87 75 52 91 53 140 115 128 116 128 134 129 124 124 119 134 128 147 135 148 146 128 120 125 102 108 99 89 86 84 48 31 40 34 36 32 16 6 358 13 16 20 28 55 81 75
96 87 115 62 61 48 102 143 338 220 146 142 142 135 127 140 150 135 164 141 134 133 144 147 131 132 127 120 111 106 104 84 61 46 23 18 28 34 24 17 5 358 12 32 32 26 41 88 96
89 81 46 45 348 116 133 255 231 166 154 155 143 136 133 142 137 161 159 154 164 156 151 154 142 143 131 125 113 107 98 83 66 41 22 13 20 9 16 17 9 0 5 26 28 24 29 63 81
71 68 102 201 176 248 137 254 209 172 158 174 175 175 181 190 206 172 164 164 194 166 170 150 146 139 137 120 119 113 101 94 75 46 19 16 19 23 34 31 23 10 22 12 30 18 28 50 65
32 145 208 294 210 161 194 258 183 176 177 190 199 195 199 201 210 206 187 180 188 188 181 171 151 143 137 116 110 107 97 82 69 52 32 21 18 28 51 45 28 8 21 27 31 39 52 43 75
172 162 243 228 228 197 229 262 182 198 196 205 208 203 211 211 217 197 183 185 188 203 200 175 175 149 130 126 120 103 106 74 60 44 44 37 29 39 57 55 42 22 29 31 27 63 50 65 76
139 149 181 258 291 176 248 268 246 214 221 229 213 212 216 223 185 186 194 186 184 199 201 208 175 163 143 152 135 134 116 101 56 52 46 43 38 39 63 70 59 31 49 47 27 31 55 47 28
116 101 262 331 344 184 279 265 253 192 218 217 210 214 217 208 177 189 189 194 190 199 199 202 190 182 165 170 159 119 140 93 91 65 38 40 34 29 64 67 59 41 44 39 42 35 72 57 23
353 185 224 247 322 321 334 281 256 242 220 209 219 219 215 202 189 189 191 187 182 199 193 173 166 178 171 152 116 95 96 96 95 24 27 19 38 35 50 57 54 51 38 38 42 35 57 109 42
287 271 147 154 118 241 85 286 292 267 251 221 226 219 209 201 195 187 183 186 184 189 179 172 162 151 148 166 142 161 150 149 149 133 81 38 36 43 51 67 71 69 65 48 48 49 51 85 108
235 198 184 193 222 321 234 146 272 291 271 243 230 222 211 196 185 186 186 183 175 167 175 173 174 161 179 195 170 170 143 116 134 122 114 73 36 43 42 43 51 66 68 62 56 47 61 61 93
217 61 26 27 61 346 230 162 279 240 219 279 258 220 205 185 185 184 178 165 172 170 166 168 177 177 198 192 178 168 157 150 145 141 140 121 74 45 44 64 69 65 75 72 66 65 62 74 74
121 69 328 345 339 236 186 188 253 268 259 232 263 246 212 181 176 173 172 177 173 178 176 174 179 185 181 173 174 162 163 161 159 159 157 150 153 115 89 73 80 84 71 76 81 77 71 73 82
198 165 178 243 240 288 88 239 252 242 307 287 304 296 206 181 186 188 186 178 175 178 180 181 180 178 176 167 163 157 154 147 142 146 147 147 151 151 138 117 99 104 95 91 80 85 85 77 79
211 185 183 348 114 309 239 283 290 304 271 254 269 292 227 202 193 188 174 177 178 181 188 185 182 178 178 173 158 150 137 135 139 135 137 150 143 149 140 126 125 113 107 101 96 95 92 82 71
164 164 149 3 258 256 268 261 240 282 303 262 249 247 237 198 186 172 180 181 183 183 178 172 179 184 181 171 166 159 147 135 130 138 149 153 155 144 154 132 123 115 104 106 104 97 92 97 87
157 209 207 176 184 216 282 261 221 251 226 249 257 235 212 205 193 184 188 189 188 182 176 180 177 175 177 174 166 156 160 156 147 144 137 137 125 149 145 133 130 125 110 116 107 111 99 98 102
239 221 188 190 226 234 223 259 256 247 243 213 255 252 230 195 193 199 194 188 190 192 184 184 183 178 175 168 169 173 168 159 155 156 159 151 152 151 161 139 134 125 123 134 131 123 110 116 115